Date String (YYYY-MM-DD hh:mm:ss) UTC,Instrument flags,Ambient pressure (hPa),Sample flow (lpm),Bypass flow (lpm),Sample temperature (°C),Ambient temperature (°C),ASC tube jacket temperature (°C),LED temperature (°C),Box temperature (°C),Sample RH (%),Span deviation,Mass concentration (μg/m³),Mass concentration (μg/m³),Mass concentration (μg/m³)
DateTimeUTC,F1_M11,P_M11,Q1_M11,Q2_M11,T1_M11,T2_M11,T3_M11,T4_M11,T5_M11,U1_M11,ZSPAN_M11,X0_M11,X2_M11,X1_M11
2022-12-05 04:00:00,,0818.3,5.00,0.00,25.2,23.7,00.0,34.2,27.1,13.7,0001.5,0017.29,0010.06,0009.18
2022-12-05 04:01:00,,0818.1,5.00,0.00,25.2,23.7,00.0,34.2,27.1,13.7,0001.8,0017.62,0010.09,0009.20
2022-12-05 04:02:00,,0818.0,5.00,0.00,25.2,23.7,00.0,34.2,27.1,13.7,0002.0,0018.08,0010.19,0009.32
2022-12-05 04:03:00,,0818.0,5.00,0.00,25.2,23.7,00.0,34.1,27.0,13.7,0002.5,0018.13,0010.34,0009.43
2022-12-05 04:04:00,,0818.1,5.00,0.00,25.2,23.7,00.0,34.1,27.0,13.7,0002.9,0017.63,0010.43,0009.52
2022-12-05 04:05:00,,0818.2,5.00,0.00,25.1,23.6,00.0,34.1,27.0,13.7,0003.0,0017.45,0010.48,0009.57
2022-12-05 04:06:00,,0818.3,5.00,0.00,25.1,23.7,00.0,34.1,27.0,13.7,0002.4,0017.52,0010.60,0009.65
2022-12-05 04:07:00,,0818.2,5.00,0.00,25.1,23.7,00.0,34.1,27.0,13.7,0002.0,0018.04,0010.72,0009.74
2022-12-05 04:08:00,,0818.0,5.00,0.00,25.2,23.8,00.0,34.1,27.0,13.7,0001.7,0019.31,0010.81,0009.81
2022-12-05 04:09:00,,0818.0,5.00,0.00,25.2,23.8,00.0,34.1,27.1,13.8,0002.2,0020.00,0010.80,0009.85
2022-12-05 04:10:00,,0818.1,5.01,0.00,25.2,23.8,00.0,34.1,27.0,13.8,0002.1,0019.55,0010.84,0009.91
2022-12-05 04:11:00,,0818.3,5.00,0.00,25.2,23.8,00.0,34.1,27.0,13.8,0001.7,0019.45,0010.94,0009.98
2022-12-05 04:12:00,,0818.4,4.98,0.00,25.1,23.7,00.0,34.1,27.0,13.9,0001.6,0019.27,0010.99,0010.03
2022-12-05 04:13:00,,0818.4,4.99,0.00,25.1,23.6,00.0,34.1,27.0,13.9,0001.0,0019.60,0011.03,0010.02
2022-12-05 04:14:00,,0818.4,5.00,0.00,25.1,23.3,00.0,34.1,26.9,13.8,0000.5,0019.24,0011.01,0010.01
2022-12-05 04:15:00,,0818.4,5.00,0.00,25.1,23.2,00.0,34.1,26.9,13.8,0000.1,0019.22,0011.03,0010.05
2022-12-05 04:16:00,,0818.4,5.00,0.00,25.0,23.1,00.0,34.1,26.8,13.9,0000.3,0020.29,0011.10,0010.12
2022-12-05 04:17:00,,0818.4,5.00,0.00,25.0,22.9,00.0,34.1,26.7,13.9,0001.3,0021.01,0011.12,0010.17
2022-12-05 04:18:00,,0818.4,5.00,0.00,24.9,22.9,00.0,34.1,26.7,13.9,0001.8,0020.78,0011.09,0010.19
2022-12-05 04:19:00,,0818.2,5.00,0.00,24.9,23.0,00.0,34.0,26.7,14.0,0002.0,0019.88,0011.10,0010.23
2022-12-05 04:20:00,,0818.2,5.01,0.00,24.9,23.1,00.0,34.0,26.7,14.0,0001.7,0019.69,0011.19,0010.29
2022-12-05 04:21:00,,0818.1,5.01,0.00,24.9,23.2,00.0,34.0,26.8,14.0,0001.8,0019.51,0011.29,0010.34
2022-12-05 04:22:00,,0818.1,5.00,0.00,24.9,23.3,00.0,34.0,26.8,14.0,0001.8,0019.47,0011.33,0010.36
2022-12-05 04:23:00,,0818.0,5.00,0.00,24.9,23.4,00.0,34.0,26.8,14.0,0001.8,0019.68,0011.42,0010.39
2022-12-05 04:24:00,,0818.0,5.00,0.00,24.9,23.4,00.0,33.9,26.8,14.0,0002.3,0019.40,0011.43,0010.39
2022-12-05 04:25:00,,0818.0,5.00,0.00,24.9,23.3,00.0,33.9,26.8,14.0,0002.6,0019.58,0011.39,0010.37
2022-12-05 04:26:00,,0818.0,4.99,0.00,24.9,23.2,00.0,33.9,26.7,14.0,0002.7,0019.36,0011.32,0010.33
2022-12-05 04:27:00,,0818.0,5.00,0.00,24.8,23.0,00.0,33.9,26.6,14.1,0002.1,0018.12,0011.26,0010.28
2022-12-05 04:28:00,,0817.9,5.01,0.00,24.8,22.9,00.0,33.9,26.6,14.1,0001.7,0017.24,0011.24,0010.25
2022-12-05 04:29:00,,0817.8,5.00,0.00,24.8,22.9,00.0,33.9,26.6,14.1,0001.8,0017.47,0011.23,0010.24
2022-12-05 04:30:00,,0817.9,5.00,0.00,24.7,22.9,00.0,33.8,26.5,14.1,0001.6,0017.28,0011.20,0010.22
2022-12-05 04:31:00,,0817.9,5.00,0.00,24.7,22.9,00.0,33.8,26.5,14.2,0002.0,0017.20,0011.21,0010.21
2022-12-05 04:32:00,,0818.1,5.00,0.00,24.7,22.9,00.0,33.8,26.6,14.2,0002.0,0017.16,0011.19,0010.21
2022-12-05 04:33:00,,0818.2,5.00,0.00,24.7,22.9,00.0,33.8,26.5,14.2,0001.7,0017.30,0011.19,0010.22
2022-12-05 04:34:00,,0818.0,4.98,0.00,24.6,22.8,00.0,33.8,26.4,14.3,0001.8,0017.26,0011.17,0010.22
2022-12-05 04:35:00,,0817.7,5.01,0.00,24.6,22.6,00.0,33.7,26.3,14.3,0002.0,0017.53,0011.13,0010.21
2022-12-05 04:36:00,,0817.8,5.01,0.00,24.6,22.7,00.0,33.7,26.4,14.3,0001.9,0017.78,0011.13,0010.18
2022-12-05 04:37:00,,0817.9,5.00,0.00,24.6,22.7,00.0,33.7,26.3,14.4,0002.8,0017.97,0011.18,0010.17
2022-12-05 04:38:00,,0817.8,4.99,0.00,24.5,22.5,00.0,33.7,26.3,14.3,0002.7,0018.10,0011.21,0010.17
2022-12-05 04:39:00,,0817.7,4.99,0.00,24.5,22.5,00.0,33.6,26.2,14.4,0002.9,0018.24,0011.19,0010.13
2022-12-05 04:40:00,,0817.8,4.99,0.00,24.5,22.5,00.0,33.6,26.3,14.4,0002.5,0018.66,0011.16,0010.08
2022-12-05 04:41:00,,0817.8,5.01,0.00,24.4,22.6,00.0,33.6,26.3,14.4,0003.0,0019.09,0011.11,0010.03
2022-12-05 04:42:00,,0817.6,5.01,0.00,24.4,22.4,00.0,33.6,26.1,14.7,0002.6,0018.65,0010.90,0009.86
2022-12-05 04:43:00,,0817.5,5.00,0.00,24.4,22.3,00.0,33.5,26.1,15.2,0002.8,0018.00,0010.40,0009.44
2022-12-05 04:44:00,,0817.6,5.00,0.00,24.4,22.3,00.0,33.5,26.1,15.4,0003.4,0016.82,0009.88,0008.97
2022-12-05 04:45:00,,0817.6,5.00,0.00,24.3,22.2,00.0,33.5,26.1,15.5,0003.3,0015.92,0009.33,0008.50
2022-12-05 04:46:00,,0817.6,5.00,0.00,24.3,22.3,00.0,33.5,26.0,15.3,0002.9,0014.71,0008.85,0008.11
2022-12-05 04:47:00,,0817.5,5.00,0.00,24.3,22.4,00.0,33.4,26.0,15.4,0002.8,0013.44,0008.45,0007.79
2022-12-05 04:48:00,,0817.5,5.00,0.00,24.3,22.5,00.0,33.4,26.1,15.3,0002.2,0012.79,0008.02,0007.44
2022-12-05 04:49:00,,0817.6,4.99,0.00,24.3,22.5,00.0,33.4,26.1,15.2,0001.2,0012.16,0007.61,0007.11
2022-12-05 04:50:00,,0817.6,5.00,0.00,24.3,22.5,00.0,33.4,26.1,15.2,0000.9,0011.63,0007.24,0006.81
2022-12-05 04:51:00,,0817.7,5.00,0.00,24.3,22.5,00.0,33.4,26.1,15.3,0000.9,0010.69,0006.91,0006.52
2022-12-05 04:52:00,,0817.8,5.00,0.00,24.2,22.5,00.0,33.3,26.0,15.4,0000.0,0009.66,0006.56,0006.22
2022-12-05 04:53:00,,0817.7,5.00,0.00,24.2,22.4,00.0,33.3,26.0,15.7,0000.0,0008.81,0006.14,0005.86
2022-12-05 04:54:00,,0817.7,5.02,0.00,24.2,22.4,00.0,33.3,26.0,16.0,0000.0,0008.57,0005.97,0005.71
2022-12-05 04:55:00,,0817.7,5.00,0.00,24.2,22.3,00.0,33.3,25.9,16.0,0000.0,0008.51,0005.90,0005.64
2022-12-05 04:56:00,,0817.7,5.00,0.00,24.1,22.3,00.0,33.3,25.9,15.9,0000.0,0008.62,0005.83,0005.58
2022-12-05 04:57:00,,0817.8,4.99,0.00,24.1,22.3,00.0,33.2,25.9,15.9,0000.0,0008.50,0005.70,0005.47
2022-12-05 04:58:00,,0817.6,5.00,0.00,24.1,22.3,00.0,33.2,25.9,15.9,0000.0,0008.35,0005.56,0005.34
2022-12-05 04:59:00,,0817.6,5.00,0.00,24.1,22.4,00.0,33.2,25.9,15.9,0000.0,0008.14,0005.43,0005.23
